Retour au catalogue

COSMOS 1317 DEB

LostHEO
NORAD 14735·DEBRIS·🇷🇺 Russia

Lancé Oct 31, 1981 depuis Plesetsk Cosmodrome

Loading…

Prochains Passages (prochaines 24 heures)

TLE

PériméSource: Space-Track

Époque: Oct 24, 2024, 05:52 UTC

1 14735U 81108F   24298.24465617  .00000117  00000-0  00000+0 0  9996
2 14735  71.3593 110.5892 4907150 339.9958 234.0573  2.01436638282322

Suivez COSMOS 1317 DEB en temps réel avec AllMySat

Download on the App Store